Terminal Aerodrome Forecast
Issued by NWS Tampa Bay Area, FL

Home | Current Version | Previous Version | Text Only | Print | Product List | Glossary On
Versions: 1 2 3 4 5 6 7 8 9 10 11 12 13 14 15 16 17 18 19 20 21 22 23 24 25 26
000
FTUS42 KTBW 220536
TAFTPA
TAF
KTPA 220536Z 2206/2312 09005KT P6SM SKC
     FM220900 09003KT P6SM FEW010
     FM221400 10007KT P6SM SCT025
     FM221800 12007KT P6SM SCT050
     FM230200 08005KT P6SM SKC=

USA.gov is the U.S. government's official web portal to all federal, state and local government web resources and services.